sat.trackr.live / text

‹ back to catalog

STARLINK-32640

NORAD 62198 · 2024-229G

PAYLOAD ACTIVE UNKNOWN

§ Identity

Operator
Country
US
Launch date
2024-12-04
Launch site
AFETR
Launch vehicle
Mass (kg)
RCS (m²)

Purposes: comms

External: N2YO · Heavens-Above · Gunter

§ Orbital elements

Epoch: 2026-05-25T04:36:33.587424Z

Period
94.27 min
Inclination
42.9970°
Eccentricity
0.0001119
Mean motion
15.27586148 rev/d
Perigee alt
482.3 km
Apogee alt
483.8 km
Semi-major
6,861.2 km
B*
4.3217e-4
RAAN
198.4805°
Arg perigee
279.7165°
Mean anomaly
80.3560°
Rev number
8,226

§ Raw data

STARLINK-326401 62198U 24229G   26145.19205541  .00011652  00000+0  43217-3 0  99942 62198  42.9970 198.4805 0001119 279.7165  80.3560 15.27586148 82260

JSON: /api/v1/satellites/62198 · /tle

For live sub-satellite position, see the globe view (requires WebGL).

§ Visibility from observer

Set your observer location to see the next 7 days of passes ≥ 10°. The values pass through the URL so the page stays shareable.

No JS? Fill the form by hand. The geolocation button needs JavaScript.